Weather in Krasiliv

Ukraine / Khmelnitsky District     49°39′13″N   26°58′14″E
temp.,
°C
wind,
m/s
gust,
m/s
humid.,
%
clouds,
%
prec.,
mm/h
press.,
hPa
HPBL,
m
30 june, thu
thu3000:00+18ese348413 0.1 101669
03:00+18ese22875 0.1 101611
06:00+18sse33821 0.0 101548
09:00+23e34680 0.0 1016390
12:00+27e34565 0.0 1015926
15:00+29ene43511 0.0 10151526
18:00+28ene44536 0.0 10141520
21:00+23ene39775 0.0 1015184
1 july, fri
fri100:00+19e410814 0.0 1016183
03:00+18ese379079 0.0 1017127
06:00+17ese379298 0.0 1018164
09:00+23ese576772 0.0 1018556
12:00+26ese565158 0.0 10181404
15:00+28e44430 0.0 10171962
18:00+27e55480 0.0 10161540
21:00+21e410650 0.0 1018163
2 july, sat
sat200:00+19ese4105799 0.0 1019167
03:00+17ese410630 0.0 1019165
06:00+16se39727 0.0 1020168
09:00+23sse575414 0.0 1020444
12:00+28sse55435 0.0 10201231
15:00+30ese343824 0.0 10192179
18:00+26n115498 0.0 101916
21:00+22n127167 0.0 101939
3 july, sun
sun300:00+18nw4798100 0.1 1021192
03:00+17nw369793 0.3 1020262
06:00+17nw4797100 0.8 1020397
09:00+18nw3595100 2.9 1020365
12:00+22nw447369 0.4 1020983
15:00+23nw4464100 0.6 10191067
18:00+22nw3569100 0.1 1019493
21:00+18nw11783 0.1 101911
4 july, mon
mon400:00+16n22885 0.0 101911
03:00+15nw11900 0.0 101911
06:00+15nw22910 0.0 101917
09:00+21nw23670 0.0 1019459
12:00+24nnw33521 0.0 10191323
15:00+25nnw335557 0.0 10181426
18:00+25n236239 0.1 1018821
21:00+21n33790 0.2 101833